Change the Weather History Date:

Wednesday, October 20, 2010

  Actual Average Record
Temperature  
Mean Temperature 52 °F -  
Max Temperature 62 °F 56 °F 70 °F (2011)
Min Temperature 42 °F 42 °F 33 °F (1972)
Degree Days  
Heating Degree Days 14    
Growing Degree Days 2 (Base 50)    
Moisture  
Dew Point 49 °F    
Average Humidity 81    
Maximum Humidity 94    
Minimum Humidity 64    
Precipitation  
Precipitation 0.01 in - - ()
Sea Level Pressure  
Sea Level Pressure 29.88 in    
Wind  
Wind Speed 4 mph (South)    
Max Wind Speed 10 mph    
Max Gust Speed 16 mph    
Visibility 10 miles    
Events Rain    
Averages and records for this station are not official NWS values.
T = Trace of Precipitation, MM = Missing Value Source: NWS Daily Summary

Daily Weather History Graph

Daily Weather History Graph

Search for Another Location

Airport or City:

Trip Planner

Search our weather history database for the weather conditions in past years. The results will help you decide how hot, cold, wet, or windy it might be!

Date:

Astronomy

Oct. 20, 2010 Rise Set
Actual Time 6:57 AM EDT 5:51 PM EDT
Civil Twilight 6:29 AM EDT 6:19 PM EDT
Nautical Twilight 5:57 AM EDT 6:51 PM EDT
Astronomical Twilight 5:25 AM EDT 7:23 PM EDT
Moon 4:24 PM EDT (10/20) 4:35 AM EDT (10/20)
Length of Visible Light 11h 49m
Length of Day
10h 53m
Waxing Gibbous, 95% of the Moon is Illuminated
Oct 20
Waxing Gibbous
Oct 22
Full
Oct 30
Last Quarter
Nov 6
New
Nov 13
First Quarter

Hourly Weather History & Observations

Time (EDT) Temp. Dew Point Humidity Pressure Visibility Wind Dir Wind Speed Gust Speed Precip Events Conditions
12:52 AM 42.1 °F 39.0 °F 89% 29.96 in 10.0 mi Calm Calm - N/A   Clear
1:52 AM 42.1 °F 39.0 °F 89% 29.96 in 10.0 mi Calm Calm - N/A   Clear
6:52 AM 50.0 °F 46.9 °F 89% 29.95 in 10.0 mi South 3.5 mph - N/A   Clear
7:52 AM 54.0 °F 48.9 °F 83% 29.96 in 10.0 mi Calm Calm - N/A   Partly Cloudy
8:52 AM 55.9 °F 48.9 °F 77% 29.97 in 10.0 mi SSW 8.1 mph - N/A   Clear
9:52 AM 57.9 °F 48.9 °F 72% 29.96 in 10.0 mi SSW 8.1 mph - N/A   Clear
10:52 AM 59.0 °F 48.0 °F 67% 29.96 in 10.0 mi SSW 8.1 mph - N/A   Clear
11:52 AM 61.0 °F 48.9 °F 64% 29.95 in 10.0 mi SSW 6.9 mph - N/A   Clear
12:52 PM 61.0 °F 48.9 °F 64% 29.93 in 10.0 mi SSW 5.8 mph 16.1 mph N/A   Clear
1:52 PM 59.0 °F 48.0 °F 67% 29.90 in 10.0 mi South 6.9 mph - N/A   Clear
2:52 PM 60.1 °F 48.0 °F 64% 29.89 in 10.0 mi South 10.4 mph 16.1 mph N/A   Clear
3:52 PM 57.0 °F 46.9 °F 69% 29.88 in 10.0 mi South 6.9 mph - N/A   Partly Cloudy
4:52 PM 55.9 °F 46.9 °F 72% 29.87 in 10.0 mi South 9.2 mph - N/A   Clear
5:52 PM 55.0 °F 46.0 °F 72% 29.85 in 10.0 mi SSE 5.8 mph - N/A   Clear
6:52 PM 55.0 °F 48.0 °F 77% 29.86 in 10.0 mi Variable 4.6 mph - N/A   Partly Cloudy
7:52 PM 55.0 °F 48.9 °F 80% 29.85 in 10.0 mi SSE 5.8 mph - N/A   Clear
8:52 PM 55.0 °F 50.0 °F 83% 29.84 in 10.0 mi South 6.9 mph - N/A   Clear
9:40 PM 55.4 °F 51.8 °F 88% 29.83 in 10.0 mi Variable 3.5 mph - N/A   Overcast
9:52 PM 55.9 °F 51.1 °F 84% 29.83 in 10.0 mi Calm Calm - N/A   Overcast
10:19 PM 55.4 °F 51.8 °F 88% 29.82 in 6.0 mi SSE 6.9 mph - 0.01 in Rain Light Rain
10:45 PM 55.4 °F 53.6 °F 94% 29.81 in 10.0 mi South 3.5 mph - 0.01 in   Overcast
10:52 PM 55.0 °F 53.1 °F 93% 29.82 in 10.0 mi South 4.6 mph - 0.01 in   Overcast
11:02 PM 55.4 °F 53.6 °F 94% 29.81 in 10.0 mi Variable 3.5 mph - N/A   Overcast
11:13 PM 55.4 °F 53.6 °F 94% 29.81 in 10.0 mi Calm Calm - N/A   Overcast
11:26 PM 55.4 °F 51.8 °F 88% 29.80 in 10.0 mi SW 5.8 mph - N/A   Mostly Cloudy
11:52 PM 54.0 °F 52.0 °F 93% 29.80 in 10.0 mi SW 4.6 mph - N/A   Scattered Clouds